Location: Newark
(48.8833°N, 0.9236°W)
Time: 14:04:50
(UTC+00:00)

Transit 4A - Pass Details

Date: 27 November 2019
Orbit: 870 x 975 km, 66.8° (Epoch: 13 December)

Event Time Altitude Azimuth Distance (km) Brightness Sun altitude
Exits shadow 06:34:42 11° 287° (WNW) 2,478 9.4 -8.9°
Maximum altitude 06:37:32 15° 257° (WSW) 2,184 9.4 -8.5°
Drops below altitude 10° 06:40:41 10° 224° (SW) 2,514 10.0 -8.0°
Sets 06:44:14 0° 202° (SSW) 3,444 10.9 -7.5°
